Regional Weather Roundup
Issued by NWS

Home | Current Version | Previous Version | Graphics & Text | Print | Product List | Glossary On
Versions: 1 2 3 4 5 6 7 8 9 10 11 12 13 14 15 16 17 18 19 20 21 22 23 24 25 26 27 28 29 30 31 32 33 34 35 36 37 38 39 40 41 42 43 44 45 46 47 48 49 50
000
ASUS45 KBOU 260407
RWRCO

WEATHER ROUNDUP FOR COLORADO
NATIONAL WEATHER SERVICE DENVER/BOULDER CO
900 PM MST TUE NOV 25 2014

NOTE: "FAIR" INDICATES FEW OR NO CLOUDS BELOW 12000 FEET WITH NO
SIGNIFICANT WEATHER AND/OR OBSTRUCTIONS TO VISIBILITY.

COZ001>005-013-030-031-260500-
...NORTHWEST COLORADO...

CITY           SKY/WX    TMP DP  RH WIND       PRES   REMARKS
CRAIG          CLOUDY    29  23  78 NE5       30.20R WCI  24
HAYDEN         CLOUDY    27  23  86 CALM      30.19R
MEEKER         CLOUDY    33  24  69 N7        30.23S WCI  27
MOUNT WERNER   NOT AVBL
STEAMBOAT SPGS CLOUDY    30  28  93 CALM      30.19R
WALDEN         CLOUDY    30  23  74 W15G22    30.06S WCI  19
$$

COZ006>008-011-260500-
...WEST CENTRAL VALLEYS...

CITY           SKY/WX    TMP DP  RH WIND       PRES   REMARKS
GRAND JUNCTION MOCLDY    31  19  61 E6        30.30S WCI  25
MONTROSE       CLOUDY    32  21  64 S5        30.33R WCI  27
EAGLE          CLOUDY    30  23  74 CALM      30.29R
RIFLE          CLOUDY    28  22  78 CALM      30.31S
DELTA          CLOUDY    37  23  59 CALM      30.32S
NUCLA          CLOUDY    37  19  48 E6        30.37S
$$

COZ017>023-064>068-260500-
...SOUTHWEST COLORADO...

CITY           SKY/WX    TMP DP  RH WIND       PRES   REMARKS
DURANGO        CLEAR     33  17  51 SW6       30.26F WCI  28
CORTEZ         CLEAR     23  11  60 NE8       30.35R WCI  14
PAGOSA SPRINGS CLEAR     24  10  55 CALM      30.28S
TELLURIDE      NOT AVBL
WOLF CREEK PAS PTCLDY    18  10  73 MISG      30.27S
$$

COZ009-010-012-014-032>034-037-058>063-260500-
...CENTRAL COLORADO...

CITY           SKY/WX    TMP DP  RH WIND       PRES   REMARKS
ASPEN          CLOUDY    22  20  92 CALM      30.26S FOG
BUENA VISTA    PTCLDY    32  18  57 W30G43    30.09S WCI  17
COPPER MTN     CLOUDY    23  18  80 W21       30.15S WCI   8
BERTHOUD PASS  NOT AVBL
COTTONWOOD PAS LGT SNOW  30  19  64 NW37G52   30.07F WCI  14
GUNNISON       CLOUDY    25  18  74 CALM      30.33R
KREMMLING      LGT SNOW  28  23  80 W23G31    30.16S WCI  14
LEADVILLE      LGT SNOW  21  17  84 NW13G26   30.17S FOG     WCI   9
MONARCH PASS   CLOUDY    16  12  86 MISG      30.27F
SALIDA         PTCLDY    37  19  46 W32G48    30.18F
SUNLIGHT       CLOUDY   N/A N/A N/A SW3       30.25R
WILKERSON PASS PTCLDY    21  16  79 MISG      30.06R
$$

COZ069>075-260500-
...SAN LUIS VALLEY/SANGRE DE CRISTO MOUNTAINS...

CITY           SKY/WX    TMP DP  RH WIND       PRES   REMARKS
ALAMOSA        PTCLDY    17   7  64 SW6       30.21R WCI   9
LA VETA PASS   CLEAR     21  12  68 S15G29    30.09S WCI   8
SAGUACHE       NOT AVBL
$$

COZ035-036-038>040-260500-
...NORTHERN COLORADO FRONT RANGE...

CITY           SKY/WX    TMP DP  RH WIND       PRES   REMARKS
DENVER INTL AP MOCLDY    35  28  75 NE17      30.01R WCI  25
DMNS CITY PARK   N/A     38  26  62 E18G29    30.01R
AURORA         MOCLDY    38  23  55 NE18G28   30.00R
FRONT RANGE AP NOT AVBL
ERIE MUNI ARPT MOCLDY    36  29  75 E18G25    30.01R
BOULDER MUN AP PTCLDY    48  21  34 NW23G40   29.97R
CENTENNIAL     MOCLDY    44  22  41 N23G29    29.97R
BROOMFIELD     MOCLDY    46  19  34 NW7       29.99R
FORT COLLINS   MOCLDY    36  25  64 NE22G29   30.02R
LONGMONT       MOCLDY    39  30  69 E21G26    30.04R
$$

COZ041-046-047-076>085-087-088-260500-
...PIKES PEAK/PALMER DIVIDE AND SOUTHERN FOOTHILLS...

CITY           SKY/WX    TMP DP  RH WIND       PRES   REMARKS
COLO. SPRINGS  PTCLDY    37  19  48 N10       29.99R
A. F. ACADEMY  PTCLDY    40  17  39 N15       29.96R
ELLICOTT       NOT AVBL
FALCON         NOT AVBL
FORT CARSON    PTCLDY    38  17  43 S8        29.95R
LIMON          MOCLDY    35  21  56 N20       29.99R WCI  24
MONUMENT HILL  MOCLDY    28  19  69 W8        29.98R WCI  20
TRINIDAD       CLEAR     41  22  46 NW8       30.01R
$$

COZ042>045-048>051-090-091-260500-
...NORTHEAST COLORADO...

CITY           SKY/WX    TMP DP  RH WIND       PRES   REMARKS
GREELEY ARPT   MOCLDY    34  25  69 NE18G26   30.03R WCI  23
AKRON          LGT SNOW  32  31  96 N15G21    30.03R FOG     WCI  22
BURLINGTON     CLOUDY    38  30  73 N14G24    30.00R
WRAY           LGT RAIN  36  33  91 N15G23    30.01R
STERLING       LGT SNOW  36  34  93 N10       30.02R
HOLYOKE        DRIZZLE   37  34  87 NW13      30.00R
FORT MORGAN    LGT SNOW  32  29  88 N18G26    30.04R WCI  20
$$

COZ086-089-092>099-260500-
...SOUTHEAST COLORADO...

CITY           SKY/WX    TMP DP  RH WIND       PRES   REMARKS
PUEBLO         PTCLDY    50  22  33 W29G35    29.94F
LA JUNTA       PTCLDY    39  23  52 W13       29.94S
LAMAR          MOCLDY    35  21  56 SW7       29.92R WCI  29
SPRINGFIELD      N/A     35  20  54 W9        29.94R WCI  28
$$


USA.gov is the U.S. government's official web portal to all federal, state and local government web resources and services.